Cairo, IL

1:38 AM CDT on May 26, 2018 (GMT -0500)
Cairo Regional

Weather History for KCIR - December, 2013

Change the Weather History Date:

Thursday, December 26, 2013

  Actual Average Record
Temperature  
Mean Temperature 35 °F -  
Max Temperature 45 °F 39 °F 67 °F (1971)
Min Temperature 25 °F 26 °F 6 °F (1983)
Degree Days  
Heating Degree Days 30    
Moisture  
Dew Point 29 °F    
Average Humidity 77    
Maximum Humidity 91    
Minimum Humidity 53    
Precipitation  
Precipitation 0.00 in - - ()
Sea Level Pressure  
Sea Level Pressure 30.39 in    
Wind  
Wind Speed 2 mph (SW)    
Max Wind Speed 7 mph    
Max Gust Speed -    
Visibility 8 miles    
Events      
Averages and records for this station are not official NWS values.
T = Trace of Precipitation, MM = Missing Value Source: NWS Daily Summary

Daily Weather History Graph

Daily Weather History Graph

Search for Another Location

Airport or City:

Astronomy

Dec. 26, 2013 Rise Set
Actual Time 7:08 AM CST 4:46 PM CST
Civil Twilight 6:39 AM CST 5:15 PM CST
Nautical Twilight 6:07 AM CST 5:48 PM CST
Astronomical Twilight 5:35 AM CST 6:19 PM CST
Moon 12:43 AM CST 12:16 PM CST
Length of Visible Light 10h 35m
Length of Day
9h 37m
Last Quarter, 38% of the Moon is Illuminated
Dec 26
Last Quarter
Jan 1
New
Jan 7
First Quarter
Jan 15
Full
Jan 23
Last Quarter

Hourly Weather History & Observations

Time (CST) Temp. Windchill Dew Point Humidity Pressure Visibility Wind Dir Wind Speed Gust Speed Precip Events Conditions
12:15 AM 33.6 °F 30.6 °F 29.3 °F 84% 30.34 in 10.0 mi WNW 3.5 mph - N/A   Scattered Clouds
12:35 AM 34.7 °F 30.6 °F 30.0 °F 83% 30.34 in 10.0 mi NW 4.6 mph - N/A   Overcast
12:55 AM 35.1 °F 31.0 °F 29.8 °F 81% 30.34 in 10.0 mi NW 4.6 mph - N/A   Mostly Cloudy
1:15 AM 33.8 °F 29.6 °F 28.4 °F 81% 30.34 in 10.0 mi NW 4.6 mph - N/A   Clear
1:35 AM 31.8 °F - 26.4 °F 80% 30.35 in 10.0 mi Calm Calm - N/A   Clear
1:55 AM 32.4 °F - 27.9 °F 83% 30.35 in 10.0 mi Calm Calm - N/A   Clear
2:15 AM 32.9 °F - 28.4 °F 84% 30.35 in 10.0 mi Calm Calm - N/A   Clear
2:35 AM 32.4 °F - 28.4 °F 85% 30.36 in 10.0 mi Calm Calm - N/A   Clear
2:55 AM 29.1 °F - 25.0 °F 85% 30.36 in 5.0 mi Calm Calm - N/A   Clear
3:15 AM 28.8 °F 25.0 °F 25.0 °F 86% 30.36 in 5.0 mi WSW 3.5 mph - N/A   Clear
3:35 AM 28.0 °F 24.2 °F 24.4 °F 86% 30.37 in 4.0 mi WSW 3.5 mph - N/A   Clear
3:55 AM 28.8 °F 25.0 °F 25.3 °F 87% 30.37 in 5.0 mi West 3.5 mph - N/A   Clear
4:15 AM 29.3 °F - 26.1 °F 88% 30.37 in 5.0 mi Calm Calm - N/A   Clear
4:35 AM 29.7 °F - 26.4 °F 88% 30.37 in 4.0 mi Calm Calm - N/A   Clear
4:55 AM 28.8 °F - 25.7 °F 88% 30.38 in 4.0 mi Calm Calm - N/A   Clear
5:15 AM 28.8 °F - 25.7 °F 88% 30.38 in 4.0 mi Calm Calm - N/A   Clear
5:35 AM 28.8 °F - 25.9 °F 89% 30.38 in 5.0 mi Calm Calm - N/A   Clear
5:55 AM 26.2 °F - 23.4 °F 89% 30.39 in 4.0 mi Calm Calm - N/A   Clear
6:15 AM 26.8 °F - 24.1 °F 90% 30.39 in 2.5 mi Calm Calm - N/A   Clear
6:35 AM 26.8 °F - 24.1 °F 90% 30.40 in 3.0 mi Calm Calm - N/A   Clear
6:55 AM 26.1 °F 21.9 °F 23.4 °F 90% 30.40 in 1.0 mi NNW 3.5 mph - N/A   Mist
7:15 AM 26.8 °F - 24.3 °F 90% 30.41 in 1.0 mi Calm Calm - N/A   Mist
7:35 AM 25.7 °F - 23.0 °F 89% 30.41 in 3.0 mi Calm Calm - N/A   Clear
7:55 AM 27.1 °F 23.2 °F 24.4 °F 90% 30.42 in 3.0 mi WSW 3.5 mph - N/A   Clear
8:15 AM 30.7 °F - 28.0 °F 90% 30.42 in 4.0 mi Calm Calm - N/A   Clear
8:35 AM 32.7 °F - 30.4 °F 91% 30.43 in 5.0 mi Calm Calm - N/A   Clear
8:55 AM 33.8 °F - 31.5 °F 91% 30.43 in 7.0 mi Calm Calm - N/A   Clear
9:15 AM 34.5 °F - 32.0 °F 90% 30.44 in 7.0 mi Calm Calm - N/A   Clear
9:35 AM 35.6 °F - 32.2 °F 87% 30.44 in 7.0 mi Calm Calm - N/A   Clear
9:55 AM 36.5 °F - 32.9 °F 87% 30.45 in 10.0 mi Calm Calm - N/A   Clear
10:15 AM 37.9 °F - 33.3 °F 83% 30.45 in 10.0 mi Calm Calm - N/A   Clear
10:35 AM 39.2 °F - 32.9 °F 78% 30.45 in 10.0 mi Calm Calm - N/A   Clear
10:55 AM 40.5 °F - 32.9 °F 74% 30.44 in 10.0 mi Calm Calm - N/A   Clear
11:15 AM 41.0 °F - 32.2 °F 71% 30.44 in 10.0 mi Calm Calm - N/A   Clear
11:35 AM 41.9 °F 39.0 °F 32.0 °F 68% 30.42 in 10.0 mi SSE 4.6 mph - N/A   Clear
11:55 AM 42.3 °F 38.6 °F 31.6 °F 66% 30.41 in 10.0 mi SSE 5.8 mph - N/A   Clear
12:15 PM 43.2 °F 40.5 °F 32.0 °F 65% 30.41 in 10.0 mi SW 4.6 mph - N/A   Clear
12:35 PM 43.9 °F 40.5 °F 31.5 °F 62% 30.40 in 10.0 mi SW 5.8 mph - N/A   Clear
12:55 PM 44.4 °F 42.0 °F 31.1 °F 60% 30.39 in 10.0 mi SSW 4.6 mph - N/A   Clear
1:15 PM 45.0 °F 41.8 °F 31.5 °F 59% 30.38 in 10.0 mi SSW 5.8 mph - N/A   Clear
1:35 PM 45.0 °F - 30.9 °F 58% 30.38 in 10.0 mi Calm Calm - N/A   Clear
1:55 PM 45.7 °F 42.0 °F 31.8 °F 58% 30.38 in 10.0 mi SSW 6.9 mph - N/A   Clear
2:15 PM 45.9 °F - 30.4 °F 55% 30.38 in 10.0 mi Calm Calm - N/A   Clear
2:35 PM 45.7 °F 43.4 °F 29.8 °F 54% 30.37 in 10.0 mi South 4.6 mph - N/A   Clear
2:55 PM 45.7 °F 42.7 °F 30.6 °F 56% 30.38 in 10.0 mi SW 5.8 mph - N/A   Clear
3:15 PM 45.7 °F 42.7 °F 30.4 °F 55% 30.37 in 10.0 mi SSW 5.8 mph - N/A   Clear
3:35 PM 45.5 °F 44.2 °F 29.1 °F 53% 30.38 in 10.0 mi SW 3.5 mph - N/A   Clear
3:55 PM 44.8 °F 42.4 °F 29.8 °F 56% 30.38 in 10.0 mi SW 4.6 mph - N/A   Clear
4:15 PM 43.9 °F 42.3 °F 30.2 °F 59% 30.38 in 10.0 mi SSW 3.5 mph - N/A   Clear
4:35 PM 42.6 °F 40.9 °F 29.3 °F 59% 30.38 in 10.0 mi SSW 3.5 mph - N/A   Clear
4:55 PM 42.3 °F 40.5 °F 29.3 °F 60% 30.37 in 10.0 mi South 3.5 mph - N/A   Clear
5:15 PM 41.4 °F 39.4 °F 29.5 °F 63% 30.37 in 10.0 mi South 3.5 mph - N/A   Clear
5:35 PM 40.3 °F 38.2 °F 29.8 °F 66% 30.36 in 10.0 mi South 3.5 mph - N/A   Clear
5:55 PM 38.3 °F 35.9 °F 28.8 °F 69% 30.37 in 10.0 mi SSW 3.5 mph - N/A   Clear
6:15 PM 35.6 °F 31.7 °F 28.4 °F 75% 30.37 in 10.0 mi SSW 4.6 mph - N/A   Clear
6:35 PM 36.3 °F 32.5 °F 29.1 °F 75% 30.36 in 10.0 mi SSW 4.6 mph - N/A   Clear
6:55 PM 35.1 °F 32.2 °F 28.0 °F 76% 30.37 in 10.0 mi SW 3.5 mph - N/A   Clear
7:15 PM 34.0 °F - 28.2 °F 79% 30.38 in 10.0 mi Calm Calm - N/A   Clear
7:35 PM 32.5 °F 28.1 °F 26.8 °F 79% 30.38 in 10.0 mi SSW 4.6 mph - N/A   Clear
7:55 PM 34.0 °F 28.8 °F 27.9 °F 78% 30.38 in 10.0 mi SSW 5.8 mph - N/A   Clear
8:15 PM 37.6 °F 34.0 °F 30.6 °F 76% 30.38 in 10.0 mi SSW 4.6 mph - N/A   Clear
8:35 PM 36.7 °F 32.9 °F 29.8 °F 76% 30.38 in 10.0 mi SW 4.6 mph - N/A   Clear
8:55 PM 36.9 °F 34.3 °F 29.8 °F 76% 30.38 in 10.0 mi SSW 3.5 mph - N/A   Clear
9:15 PM 37.2 °F 34.7 °F 30.2 °F 76% 30.38 in 10.0 mi SSW 3.5 mph - N/A   Clear
9:35 PM 32.2 °F - 26.4 °F 79% 30.38 in 10.0 mi Calm Calm - N/A   Clear
9:55 PM 31.6 °F 27.0 °F 26.2 °F 80% 30.39 in 10.0 mi SSW 4.6 mph - N/A   Clear
10:15 PM 35.2 °F 31.2 °F 30.2 °F 82% 30.39 in 10.0 mi SSW 4.6 mph - N/A   Clear
10:35 PM 36.5 °F 33.9 °F 30.9 °F 80% 30.40 in 10.0 mi South 3.5 mph - N/A   Clear
10:55 PM 32.0 °F - 26.6 °F 80% 30.40 in 10.0 mi Calm Calm - N/A   Clear
11:15 PM 32.0 °F - 27.3 °F 83% 30.39 in 10.0 mi Calm Calm - N/A   Clear
11:35 PM 31.6 °F - 27.0 °F 83% 30.40 in 10.0 mi Calm Calm - N/A   Clear
11:55 PM 30.2 °F - 25.7 °F 83% 30.40 in 10.0 mi Calm Calm - N/A   Clear